Regional Weather Roundup
Issued by NWS

Home | Current Version | Previous Version | Text Only | Print | Product List | Glossary Off
Versions: 1 2 3 4 5 6 7 8 9 10 11 12 13 14 15 16 17 18 19 20 21 22 23 24 25 26 27 28 29 30 31 32 33 34 35 36 37 38 39 40 41 42 43 44 45 46 47 48 49 50

000
ASUS45 KBOU 260507
RWRCO

WEATHER ROUNDUP FOR COLORADO
NATIONAL WEATHER SERVICE DENVER/BOULDER CO
1000 PM MST THU DEC 25 2014

NOTE: "FAIR" INDICATES FEW OR NO CLOUDS BELOW 12000 FEET WITH NO
SIGNIFICANT WEATHER AND/OR OBSTRUCTIONS TO VISIBILITY.

COZ001>005-013-030-031-260600-
...NORTHWEST COLORADO...

CITY           SKY/WX    TMP DP  RH WIND       PRES   REMARKS
CRAIG          LGT SNOW  23  20  88 W9        29.64R FOG     WCI  13
HAYDEN         CLOUDY    23  19  86 N5        29.62R WCI  17
MEEKER         CLOUDY    25  20  81 VRB3      29.64R
MOUNT WERNER   NOT AVBL
STEAMBOAT SPGS CLOUDY    25  16  68 S9        29.62R WCI  15
WALDEN         CLOUDY    14  10  85 E18       29.64R WCI  -3
$$

COZ006>008-011-260600-
...WEST CENTRAL VALLEYS...

CITY           SKY/WX    TMP DP  RH WIND       PRES   REMARKS
GRAND JUNCTION CLOUDY    27  24  89 N8        29.69R WCI  19
MONTROSE       LGT SNOW  27  25  92 N9        29.68F FOG     WCI  18
EAGLE          LGT SNOW  27  25  93 E5        29.65R VSB 1   WCI  21
RIFLE          CLOUDY    28  23  81 W9        29.66R WCI  19
DELTA          MOCLDY    28  25  90 NE5       29.69R WCI  23
NUCLA          MOCLDY    27  21  80 CALM      29.71S
$$

COZ017>023-064>068-260600-
...SOUTHWEST COLORADO...

CITY           SKY/WX    TMP DP  RH WIND       PRES   REMARKS
DURANGO        PTCLDY    25  21  85 CALM      29.67R
CORTEZ         PTCLDY    23  18  81 N7        29.68S WCI  15
PAGOSA SPRINGS CLOUDY    25  25  98 S7        29.66S WCI  18
TELLURIDE      PTCLDY    18   9  70 SE3       29.62S
WOLF CREEK PAS CLOUDY     9   9 100 MISG      29.59R
$$

COZ009-010-012-014-032>034-037-058>063-260600-
...CENTRAL COLORADO...

CITY           SKY/WX    TMP DP  RH WIND       PRES   REMARKS
ASPEN          CLOUDY    23  21  92 CALM      29.59R
BUENA VISTA    CLOUDY    26  18  71 E5        29.62S WCI  20
COPPER MTN     CLOUDY    14   7  73 SE12G20   29.55S WCI   0
BERTHOUD PASS  HAZE      -4  -8  84 MISG      29.58R VSB 1/4
COTTONWOOD PAS CLOUDY    21  14  73 CALM      29.60S
GUNNISON       CLOUDY    16  12  86 CALM      29.66R
KREMMLING      LGT SNOW  21  18  86 CALM      29.66R
LEADVILLE      LGT SNOW  15  12  88 S9        29.58R FOG     WCI   3
MONARCH PASS   CLOUDY    10   9  92 MISG      29.68S
SALIDA         CLOUDY    31  18  59 SE3       29.70R
SUNLIGHT       FLURRIES  16  12  86 MISG      29.59S
WILKERSON PASS LGT SNOW N/A N/A N/A S3        29.63R
$$

COZ069>075-260600-
...SAN LUIS VALLEY/SANGRE DE CRISTO MOUNTAINS...

CITY           SKY/WX    TMP DP  RH WIND       PRES   REMARKS
ALAMOSA        CLOUDY    26  23  88 SW7       29.65R WCI  18
LA VETA PASS   NOT AVBL
SAGUACHE       LGT SNOW  23  21  93 SE6       29.65F WCI  16
$$

COZ035-036-038>040-260600-
...NORTHERN COLORADO FRONT RANGE...

CITY           SKY/WX    TMP DP  RH WIND       PRES   REMARKS
DENVER INTL AP LGT SNOW  22  20  92 N10       29.83S FOG     WCI  11
DMNS CITY PARK   N/A     22  21  95 NE8       29.85R WCI  13
AURORA         LGT SNOW  21  20  99 N8        29.84R FOG     WCI  11
FRONT RANGE AP LGT SNOW  25  23  93 N6        29.83S WCI  18
ERIE MUNI ARPT   N/A     24  22  93 NE12      29.88R WCI  12
BOULDER MUN AP LGT SNOW  25  23  93 NE6       29.86R WCI  18
CENTENNIAL     LGT SNOW  20  18  92 NE15      29.81R FOG     WCI   6
BROOMFIELD     CLOUDY    23  21  93 N7        29.85R WCI  15
FORT COLLINS   CLOUDY    21  18  86 NE12      29.89R WCI   9
LONGMONT       LGT SNOW  26  22  87 NE12      29.90R WCI  15
$$

COZ041-046-047-076>085-087-088-260600-
...PIKES PEAK/PALMER DIVIDE AND SOUTHERN FOOTHILLS...

CITY           SKY/WX    TMP DP  RH WIND       PRES   REMARKS
COLO. SPRINGS  MOCLDY    25  15  66 N26G39    29.72R WCI   9
A. F. ACADEMY  FLURRIES  21  17  81 N21       29.73S WCI   6
ELLICOTT       NOT AVBL
FALCON         CLOUDY    20  17  86 N26G33    29.69S WCI   3
FORT CARSON    DRIZZLE   27  16  63 N29G41    29.70R WCI  11
LIMON          CLOUDY    23  21  92 N23       29.77R WCI   7
MONUMENT HILL  FLURRIES  19  18  93 N12G17    29.74S WCI   7
TRINIDAD       PTCLDY    29  24  82 N22       29.67R WCI  15
$$

COZ042>045-048>051-090-091-260600-
...NORTHEAST COLORADO...

CITY           SKY/WX    TMP DP  RH WIND       PRES   REMARKS
GREELEY ARPT   CLOUDY    23  16  74 N15       29.87R WCI  10
AKRON          FLURRIES  22  20  92 N21       29.84R WCI   6
BURLINGTON     CLOUDY    27  23  85 N20       29.77R WCI  13
WRAY           CLOUDY    29  26  88 N14G20    29.83R WCI  18
STERLING       LGT SNOW  27  25  93 NE15G25   29.86R WCI  15
HOLYOKE        CLOUDY    28  27  93 N18G25    29.84R WCI  16
FORT MORGAN    LGT SNOW  23  19  87 N17       29.88R WCI   9
$$

COZ086-089-092>099-260600-
...SOUTHEAST COLORADO...

CITY           SKY/WX    TMP DP  RH WIND       PRES   REMARKS
PUEBLO         CLOUDY    31  21  66 NE23G32   29.74R WCI  18
LA JUNTA       CLOUDY    33  25  72 NE15      29.76R WCI  23
LAMAR          CLOUDY    31  26  82 NE8       29.75R WCI  23
SPRINGFIELD      N/A     29  23  78 N14       29.70R WCI  18
$$


USA.gov is the U.S. government's official web portal to all federal, state and local government web resources and services.